Location: Astronomy Club of Akron Observatory
(40.9700°N, 81.5606°W)
Time: 14:25:32
(UTC-04:00)

Cosmos 1441 Rocket - Visible Passes

Search period start: 28 July 2014 00:00
Search period end: 07 August 2014 00:00
Orbit: 510 x 557 km, 81.1° (Epoch: 27 July)

Date Brightness Start Highest point End Pass type
(mag) Time Alt. Az. Time Alt. Az. Time Alt. Az.
28 Jul 5.5 01:37:50 23° NE 01:37:50 23° NE 01:39:39 10° NNE visible
28 Jul 5.7 03:13:13 15° NW 03:13:13 15° NW 03:14:53 10° NNW visible
29 Jul 5.6 01:28:32 21° NE 01:28:32 21° NE 01:30:12 10° NNE visible
29 Jul 5.7 03:03:55 15° NW 03:03:55 15° NW 03:05:30 10° NNW visible
30 Jul 5.6 01:19:13 20° NE 01:19:13 20° NE 01:20:45 10° NNE visible
30 Jul 5.8 02:54:36 15° NW 02:54:36 15° NW 02:56:07 10° NNW visible
31 Jul 5.7 01:09:54 19° NE 01:09:54 19° NE 01:11:18 10° NNE visible
31 Jul 5.8 02:45:16 15° NW 02:45:16 15° NW 02:46:43 10° NNW visible
01 Aug 5.8 01:00:33 18° NE 01:00:33 18° NE 01:01:50 10° NNE visible
01 Aug 5.8 02:35:56 15° NW 02:35:56 15° NW 02:37:19 10° NNW visible
02 Aug 5.8 00:51:12 17° NE 00:51:12 17° NE 00:52:23 10° NNE visible
02 Aug 5.9 02:26:34 15° NW 02:26:34 15° NW 02:27:54 10° NNW visible
03 Aug 5.8 00:41:49 17° NE 00:41:49 17° NE 00:42:54 10° NNE visible
03 Aug 5.9 02:17:12 15° NW 02:17:12 15° NW 02:18:29 10° NNW visible
04 Aug 5.9 00:32:26 16° NE 00:32:26 16° NE 00:33:26 10° NNE visible
04 Aug 6.0 02:07:48 15° NW 02:07:48 15° NW 02:09:04 10° NNW visible
05 Aug 5.9 00:23:02 15° NE 00:23:02 15° NE 00:23:57 10° NNE visible
05 Aug 6.0 01:58:24 15° NW 01:58:24 15° NW 01:59:38 10° NNW visible
06 Aug 5.9 00:13:36 15° NE 00:13:36 15° NE 00:14:28 10° NNE visible
06 Aug 6.0 01:48:59 15° NW 01:48:59 15° NW 01:50:13 10° NNW visible
